Weather History for Edwards AFB, CA

Change the Weather History Date:

Thursday, April 18, 2013

  Actual Average Record
Temperature  
Mean Temperature 54 °F -  
Max Temperature 69 °F 71 °F 91 °F (1999)
Min Temperature 40 °F 43 °F 33 °F (2006)
Degree Days  
Heating Degree Days 11    
Growing Degree Days 4 (Base 50)    
Moisture  
Dew Point 5 °F    
Average Humidity 15    
Maximum Humidity 31    
Minimum Humidity 7    
Precipitation  
Precipitation 0.00 in - - ()
Sea Level Pressure  
Sea Level Pressure 30.22 in    
Wind  
Wind Speed 5 mph (East)    
Max Wind Speed 14 mph    
Max Gust Speed 20 mph    
Visibility 10 miles    
Events      
Averages and records for this station are not official NWS values.
T = Trace of Precipitation, MM = Missing Value Source: NWS Daily Summary

Daily Weather History Graph

Daily Weather History Graph

Search for Another Location

Airport:

Trip Planner

Search our weather history database for the weather conditions in past years. The results will help you decide how hot, cold, wet, or windy it might be!

Date:

Astronomy

Apr. 18, 2013 Rise Set
Actual Time 6:15 AM PDT 7:26 PM PDT
Civil Twilight 5:49 AM PDT 7:52 PM PDT
Nautical Twilight 5:18 AM PDT 8:24 PM PDT
Astronomical Twilight 4:45 AM PDT 8:56 PM PDT
Moon 12:34 PM PDT (4/18) 1:41 AM PDT (4/18)
Length of Visible Light 14h 03m
Length of Day
13h 11m
First Quarter, 53% of the Moon is Illuminated
Apr 18
First Quarter
Apr 25
Full
May 2
Last Quarter
May 9
New
May 17
First Quarter

Hourly Weather History & Observations

Time (PDT) Temp. Windchill Dew Point Humidity Pressure Visibility Wind Dir Wind Speed Gust Speed Precip Events Conditions
12:58 AM 46.6 °F - 15.3 °F 29% 30.20 in 10.0 mi West 3.5 mph - N/A   Clear
1:58 AM 42.1 °F - 13.1 °F 31% 30.20 in 10.0 mi SSW 1.2 mph - N/A   Clear
2:58 AM 43.3 °F 39.9 °F 7.5 °F 23% 30.20 in 10.0 mi North 5.8 mph - N/A   Clear
3:58 AM 40.3 °F - 5.9 °F 24% 30.23 in 10.0 mi ESE 2.3 mph - N/A   Clear
4:58 AM 46.4 °F 42.4 °F 8.4 °F 21% 30.22 in 10.0 mi ENE 8.1 mph - N/A   Clear
5:58 AM 40.5 °F - 6.8 °F 25% 30.24 in 90.0 mi SSE 1.2 mph - N/A   Clear
6:58 AM 41.9 °F 39.0 °F 6.6 °F 23% 30.28 in 90.0 mi NNW 4.6 mph - N/A   Clear
7:58 AM 44.8 °F - 7.2 °F 21% 30.30 in 90.0 mi North 2.3 mph - N/A   Clear
8:58 AM 52.0 °F - 8.6 °F 17% 30.28 in 90.0 mi Variable 3.5 mph - N/A   Clear
9:58 AM 56.7 °F - 9.5 °F 15% 30.28 in 90.0 mi Variable 4.6 mph - N/A   Clear
10:02 AM 57.2 °F - 10.4 °F 16% 30.29 in 90.0 mi NNE 4.6 mph - N/A   Clear
10:58 AM 59.0 °F - 8.4 °F 13% 30.28 in 90.0 mi East 11.5 mph - N/A   Clear
11:58 AM 62.6 °F - 6.6 °F 11% 30.26 in 90.0 mi East 8.1 mph - N/A   Clear
12:18 PM 62.6 °F - 6.8 °F 11% 30.26 in 90.0 mi NE 13.8 mph 19.6 mph N/A   Clear
12:58 PM 64.2 °F - 4.5 °F 9% 30.24 in 90.0 mi ENE 9.2 mph - N/A   Clear
1:58 PM 64.9 °F - 3.0 °F 9% 30.23 in 90.0 mi Variable 5.8 mph - N/A   Clear
2:58 PM 66.6 °F - 3.0 °F 8% 30.20 in 90.0 mi Variable 5.8 mph - N/A   Clear
3:58 PM 67.5 °F - 1.4 °F 7% 30.19 in 90.0 mi East 9.2 mph - N/A   Clear
4:58 PM 68.0 °F - 1.8 °F 7% 30.17 in 80.0 mi Variable 2.3 mph - N/A   Clear
5:58 PM 68.2 °F - 1.9 °F 7% 30.17 in 70.0 mi ENE 4.6 mph - N/A   Clear
6:58 PM 67.8 °F - 1.8 °F 7% 30.17 in 60.0 mi ESE 3.5 mph - N/A   Clear
7:44 PM 62.6 °F - 1.4 °F 9% 30.18 in 50.0 mi SSE 2.3 mph - N/A   Clear
7:58 PM 61.2 °F - -0.0 °F 9% 30.18 in 40.0 mi SE 3.5 mph - N/A   Clear
8:58 PM 56.1 °F - 0.3 °F 10% 30.19 in 30.0 mi South 3.5 mph - N/A   Clear
9:58 PM 54.1 °F - 0.7 °F 11% 30.20 in 30.0 mi Calm Calm - N/A   Clear
10:58 PM 49.3 °F - 1.8 °F 14% 30.20 in 10.0 mi ESE 8.1 mph - N/A   Clear
11:58 PM 46.9 °F - -1.5 °F 13% 30.21 in 10.0 mi West 2.3 mph - N/A   Clear